Weather Roundup
Issued by NWS

Home | Current Version | Previous Version | Text Only | Print | Product List | Glossary On
Versions: 1 2 3 4 5 6 7 8 9 10 11 12 13 14 15 16 17 18 19 20 21 22 23 24 25 26 27 28 29 30 31 32 33 34 35 36 37 38 39 40 41 42 43 44 45 46 47 48 49 50
000
NZUS93 KARX 100359
HRRWXR

CURRENT HOURLY OBSERVATIONS ACROSS
MUCH OF THE UPPER MISSISSIPPI VALLEY
NATIONAL WEATHER SERVICE LA CROSSE WI
1100 PM CDT WED JUL 09 2014


...SOUTHEAST MINNESOTA...


CITY           SKY/WX    TMP DP  RH WIND       PRES   REMARKS
ROCHESTER      CLEAR     63  56  78 SE6       30.05R
ROCHESTER/MAYO FAIR      67  55  65 SE6       30.04S
WINONA         CLEAR     63  55  77 CALM      30.03S
AUSTIN         CLEAR     63  57  82 E3        30.03S
ALBERT LEA     CLEAR     63  57  82 CALM      30.03S
DODGE CENTER   PTCLDY    64  59  82 SE5       30.04S
PRESTON        CLEAR     65  58  77 SE6       30.05S
OWATONNA       CLEAR     64  57  77 SE3       30.03S
FARIBAULT      CLEAR     64  55  72 CALM      30.03R
$$

...ELSEWHERE IN MINNESOTA...


CITY           SKY/WX    TMP DP  RH WIND       PRES   REMARKS
MINNEAPOLIS    CLEAR     69  55  60 SE6       30.01R
INTNL FALLS    MOCLDY    52  51  97 CALM      30.00S
DULUTH         PTCLDY    57  50  77 CALM      30.03R
RED WING       CLEAR     61  57  88 CALM      30.01S
REDWOOD FALLS  CLEAR     69  52  54 CALM      30.01R
MANKATO        CLEAR     66  54  63 E6        30.01S
WORTHINGTON    CLEAR     64  57  77 SE5       30.04S
FAIRMONT       PTCLDY    66  54  63 CALM      30.02S
$$

...SOUTHWEST WISCONSIN...


CITY           SKY/WX    TMP DP  RH WIND       PRES   REMARKS
LA CROSSE      CLEAR     65  57  75 E7        30.03R
PRAIRIE DU CHI PTCLDY    63  58  84 CALM      30.04R
BOSCOBEL       CLEAR     59  56  89 CALM      30.05R
LONE ROCK      NOT AVBL
PLATTEVILLE    CLEAR     63  57  80 E5        30.07R
FORT MC COY    CLEAR     58  55  89 CALM      30.06R
VIROQUA        FAIR      63  54  73 SE5       30.06R
WIS DELLS      CLEAR     57  52  84 CALM      30.06R
$$

...ELSEWHERE IN WISCONSIN...


CITY           SKY/WX    TMP DP  RH WIND       PRES   REMARKS
MILWAUKEE      CLEAR     62  56  80 CALM      30.05R
MADISON        CLEAR     59  54  83 CALM      30.05R
GREEN BAY      CLEAR     57  55  93 CALM      30.06R
EAU CLAIRE     PTCLDY    62  57  83 E3        30.03R
BLACK RVR FLS  FAIR      56  56  99 CALM      30.04R
MEDFORD        CLEAR     52  50  93 CALM      30.06S
WAUSAU         CLEAR     57  52  83 CALM      30.06R
WIS RAPIDS     CLEAR     57  52  83 CALM      30.07R
MARSHFIELD     CLEAR     59  52  77 E3        30.06R
RICE LAKE      CLEAR     61  54  77 E5        30.05R
$$

...NORTHEAST IOWA...


CITY           SKY/WX    TMP DP  RH WIND       PRES   REMARKS
WATERLOO       CLEAR     67  59  75 CALM      30.02R
DUBUQUE        PTCLDY    62  56  80 E3        30.06R
DECORAH          N/A    N/A N/A N/A MISG        N/A
MASON CITY     CLEAR     62  60  93 CALM      30.04R
CHARLES CITY   PTCLDY    66  57  72 SE3       30.03R
OELWEIN        MOCLDY    64  64 100 SE7       30.05R
$$

...ELSEWHERE IN IOWA...


CITY           SKY/WX    TMP DP  RH WIND       PRES   REMARKS
DES MOINES     CLEAR     71  60  68 S7        30.04R
IOWA CITY      CLEAR     67  59  75 CALM      30.06R
FORT DODGE     CLEAR     63  61  94 S3        30.04R
MARSHALLTOWN   PTCLDY    68  60  75 S6        30.03R
CEDAR RAPIDS   CLEAR     63  59  87 S5        30.04R
$$

...NORTHERN ILLINOIS...


CITY           SKY/WX    TMP DP  RH WIND       PRES   REMARKS
CHICAGO-OHARE  CLEAR     66  55  67 E5        30.05R
DUPAGE         CLEAR     63  54  72 CALM      30.05R
CHICAGO-MIDWAY CLEAR     68  60  75 E6        30.05R
MOLINE         CLEAR     63  59  87 CALM      30.05R
ROCKFORD       CLEAR     63  55  75 CALM      30.08R
STERLING       CLEAR     63  55  77 CALM      30.06R
PEORIA         CLEAR     66  58  75 CALM      30.06R
$$

NOTE: "FAIR" INDICATES FEW OR NO CLOUDS BELOW 12,000 FEET WITH NO
SIGNIFICANT WEATHER AND/OR OBSTRUCTIONS TO VISIBILITY. WIND
SPEEDS ARE IN MILES-PER-HOUR.



USA.gov is the U.S. government's official web portal to all federal, state and local government web resources and services.